When you browse on this site, cookies collect data to enhance your experience and personalize the content and advertising you see.
Visit our Privacy Policy to learn more. By continuing to use the site, you agree to this use of cookies and data.
  • In Portugal
  • List of Countries
  • For 7 days
  • Water Temperature
  • Satellite Maps
  • Weather Map
  • Weather Widgets
  • user-avatar
    Login

    Hourly Weather Jasieniec

    Today, 19 June, Wednesday

    Time Temperature Precipitation Wind Pressure Humidity
    00:00 +18°C° 0 mm 3 mps 751 mmHg 86%
    01:00 +18°C° 0 mm 3 mps 751 mmHg 85%
    02:00 +17°C° 0 mm 3 mps 751 mmHg 86%
    03:00 +17°C° 0 mm 3 mps 751 mmHg 86%
    04:00 +17°C° 0 mm 3 mps 750 mmHg 87%
    05:00 +18°C° 0 mm 3 mps 750 mmHg 84%
    06:00 +20°C° 0 mm 3 mps 750 mmHg 82%
    07:00 +22°C° 0 mm 3 mps 750 mmHg 78%
    08:00 +24°C° 0.2 mm 3 mps 750 mmHg 72%
    09:00 +26°C° 0.2 mm 3 mps 749 mmHg 67%
    10:00 +27°C° 0.2 mm 2 mps 749 mmHg 61%
    11:00 +28°C° 0.1 mm 2 mps 749 mmHg 59%
    12:00 +28°C° 0.1 mm 2 mps 749 mmHg 57%
    13:00 +29°C° 0.1 mm 2 mps 748 mmHg 55%
    14:00 +29°C° 0.1 mm 2 mps 748 mmHg 56%
    15:00 +29°C° 0.1 mm 1 mps 748 mmHg 57%
    16:00 +29°C° 0.1 mm 1 mps 747 mmHg 58%
    17:00 +28°C° 0.1 mm 1 mps 747 mmHg 63%
    18:00 +27°C° 0.1 mm 2 mps 747 mmHg 67%
    19:00 +26°C° 0.1 mm 2 mps 747 mmHg 72%
    20:00 +24°C° 0 mm 2 mps 747 mmHg 76%
    21:00 +23°C° 0 mm 2 mps 747 mmHg 80%
    22:00 +21°C° 0 mm 2 mps 747 mmHg 84%
    23:00 +20°C° 0 mm 2 mps 747 mmHg 83%

    Tomorrow, 20 June, Thursday

    Time Temperature Precipitation Wind Pressure Humidity
    00:00 +20°C° 0 mm 2 mps 747 mmHg 81%
    01:00 +21°C° 0 mm 1 mps 747 mmHg 80%
    02:00 +21°C° 0 mm 1 mps 747 mmHg 81%
    03:00 +21°C° 0 mm 1 mps 747 mmHg 81%
    04:00 +21°C° 0 mm 1 mps 746 mmHg 82%
    05:00 +22°C° 0 mm 1 mps 747 mmHg 79%
    06:00 +23°C° 0 mm 2 mps 747 mmHg 76%
    07:00 +25°C° 0 mm 2 mps 747 mmHg 74%
    08:00 +26°C° 0 mm 2 mps 747 mmHg 69%
    09:00 +27°C° 0 mm 2 mps 747 mmHg 64%
    10:00 +28°C° 0 mm 2 mps 747 mmHg 59%
    11:00 +29°C° 0 mm 2 mps 747 mmHg 55%
    12:00 +30°C° 0 mm 2 mps 747 mmHg 50%
    13:00 +31°C° 0 mm 1 mps 746 mmHg 46%
    14:00 +31°C° 0 mm 1 mps 746 mmHg 45%
    15:00 +31°C° 0 mm 1 mps 746 mmHg 44%
    16:00 +31°C° 0 mm 1 mps 746 mmHg 43%
    17:00 +30°C° 0 mm 1 mps 746 mmHg 49%
    18:00 +28°C° 0 mm 1 mps 746 mmHg 55%
    19:00 +27°C° 0 mm 1 mps 747 mmHg 62%
    20:00 +25°C° 0.8 mm 1 mps 747 mmHg 71%
    21:00 +23°C° 0.8 mm 2 mps 747 mmHg 80%
    22:00 +19°C° 0.8 mm 2 mps 748 mmHg 89%
    23:00 +19°C° 0.2 mm 2 mps 748 mmHg 88%

    Day after tomorrow, 21 June, Friday

    Time Temperature Precipitation Wind Pressure Humidity
    00:00 +19°C° 0.2 mm 2 mps 748 mmHg 88%
    01:00 +18°C° 0.2 mm 2 mps 748 mmHg 88%
    02:00 +18°C° 0 mm 2 mps 748 mmHg 89%
    03:00 +18°C° 0 mm 2 mps 748 mmHg 91%
    04:00 +18°C° 0 mm 2 mps 748 mmHg 93%
    05:00 +19°C° 0 mm 2 mps 749 mmHg 89%
    06:00 +20°C° 0 mm 2 mps 749 mmHg 86%
    07:00 +23°C° 0 mm 2 mps 749 mmHg 82%
    08:00 +24°C° 0.7 mm 3 mps 750 mmHg 78%
    09:00 +25°C° 0.7 mm 3 mps 750 mmHg 75%
    10:00 +26°C° 0.7 mm 3 mps 750 mmHg 71%
    11:00 +26°C° 0.2 mm 4 mps 750 mmHg 71%
    12:00 +26°C° 0.2 mm 4 mps 750 mmHg 71%
    13:00 +26°C° 0.2 mm 4 mps 750 mmHg 70%
    14:00 +26°C° 0.1 mm 4 mps 750 mmHg 70%
    15:00 +25°C° 0.1 mm 3 mps 750 mmHg 69%
    16:00 +25°C° 0.1 mm 3 mps 750 mmHg 69%
    17:00 +25°C° 0 mm 2 mps 750 mmHg 72%
    18:00 +24°C° 0 mm 2 mps 750 mmHg 75%
    19:00 +23°C° 0 mm 2 mps 751 mmHg 78%
    20:00 +21°C° 0 mm 2 mps 751 mmHg 82%
    21:00 +20°C° 0 mm 2 mps 752 mmHg 86%
    22:00 +19°C° 0 mm 2 mps 752 mmHg 90%
    23:00 +18°C° 0 mm 2 mps 752 mmHg 91%

    22 June, Saturday

    Time Temperature Precipitation Wind Pressure Humidity
    00:00 +18°C° 0 mm 3 mps 753 mmHg 92%
    01:00 +17°C° 0 mm 3 mps 753 mmHg 93%
    02:00 +17°C° 0 mm 3 mps 753 mmHg 89%
    03:00 +16°C° 0 mm 3 mps 753 mmHg 85%
    04:00 +16°C° 0 mm 3 mps 753 mmHg 81%
    05:00 +17°C° 0 mm 3 mps 754 mmHg 79%
    06:00 +18°C° 0 mm 4 mps 754 mmHg 77%
    07:00 +18°C° 0 mm 4 mps 755 mmHg 75%
    08:00 +20°C° 0 mm 4 mps 755 mmHg 70%
    09:00 +21°C° 0 mm 4 mps 755 mmHg 65%
    10:00 +22°C° 0 mm 4 mps 755 mmHg 60%
    11:00 +23°C° 0 mm 4 mps 755 mmHg 59%
    12:00 +23°C° 0 mm 5 mps 754 mmHg 57%
    13:00 +25°C° 0 mm 5 mps 754 mmHg 56%
    14:00 +25°C° 0 mm 5 mps 754 mmHg 58%
    15:00 +25°C° 0 mm 5 mps 754 mmHg 60%
    16:00 +24°C° 0 mm 6 mps 754 mmHg 62%
    17:00 +22°C° 0 mm 5 mps 754 mmHg 67%
    18:00 +21°C° 0 mm 5 mps 754 mmHg 72%
    19:00 +20°C° 0 mm 5 mps 754 mmHg 77%
    20:00 +19°C° 0 mm 5 mps 754 mmHg 79%
    21:00 +17°C° 0 mm 5 mps 754 mmHg 80%
    22:00 +15°C° 0 mm 5 mps 755 mmHg 82%
    23:00 +15°C° 0 mm 5 mps 755 mmHg 79%

    23 June, Sunday

    Time Temperature Precipitation Wind Pressure Humidity
    00:00 +14°C° 0 mm 5 mps 755 mmHg 76%
    01:00 +13°C° 0 mm 5 mps 755 mmHg 73%
    02:00 +15°C° 0.6 mm 5 mps 751 mmHg 77%
    03:00 +14°C° 0.6 mm 5 mps 751 mmHg 79%
    04:00 +14°C° 0.6 mm 5 mps 751 mmHg 81%
    05:00 +14°C° 0.9 mm 5 mps 751 mmHg 85%
    06:00 +14°C° 0.9 mm 5 mps 751 mmHg 89%
    07:00 +13°C° 0.9 mm 5 mps 751 mmHg 93%
    08:00 +14°C° 1.7 mm 5 mps 751 mmHg 94%
    09:00 +14°C° 1.7 mm 5 mps 751 mmHg 94%
    10:00 +14°C° 1.7 mm 5 mps 751 mmHg 95%
    11:00 +15°C° 4.1 mm 5 mps 751 mmHg 95%
    12:00 +15°C° 4.1 mm 6 mps 751 mmHg 95%
    13:00 +15°C° 4.1 mm 6 mps 751 mmHg 96%
    14:00 +15°C° 2.5 mm 6 mps 751 mmHg 95%
    15:00 +15°C° 2.5 mm 7 mps 751 mmHg 95%
    16:00 +15°C° 2.5 mm 7 mps 752 mmHg 94%
    17:00 +15°C° 1.3 mm 7 mps 752 mmHg 94%
    18:00 +14°C° 1.3 mm 7 mps 752 mmHg 93%
    19:00 +14°C° 1.3 mm 6 mps 752 mmHg 92%
    20:00 +13°C° 0.4 mm 6 mps 753 mmHg 91%
    21:00 +13°C° 0.4 mm 5 mps 753 mmHg 91%
    22:00 +13°C° 0.4 mm 5 mps 753 mmHg 90%
    23:00 +12°C° 0 mm 4 mps 754 mmHg 90%

    24 June, Monday

    Time Temperature Precipitation Wind Pressure Humidity
    00:00 +12°C° 0 mm 4 mps 754 mmHg 90%
    01:00 +12°C° 0 mm 4 mps 754 mmHg 90%
    02:00 +11°C° 0 mm 4 mps 754 mmHg 90%
    03:00 +11°C° 0 mm 4 mps 755 mmHg 90%
    04:00 +11°C° 0 mm 4 mps 755 mmHg 90%
    05:00 +12°C° 0 mm 4 mps 755 mmHg 86%
    06:00 +13°C° 0 mm 4 mps 756 mmHg 82%
    07:00 +14°C° 0 mm 5 mps 756 mmHg 78%
    08:00 +17°C° 0 mm 4 mps 756 mmHg 73%
    09:00 +19°C° 0 mm 4 mps 757 mmHg 67%
    10:00 +20°C° 0 mm 4 mps 757 mmHg 62%
    11:00 +21°C° 0 mm 4 mps 757 mmHg 59%
    12:00 +22°C° 0 mm 4 mps 757 mmHg 56%
    13:00 +22°C° 0 mm 4 mps 757 mmHg 54%
    14:00 +22°C° 0 mm 4 mps 757 mmHg 54%
    15:00 +22°C° 0 mm 4 mps 757 mmHg 55%
    16:00 +23°C° 0 mm 4 mps 757 mmHg 55%
    17:00 +21°C° 0 mm 3 mps 757 mmHg 61%
    18:00 +20°C° 0 mm 3 mps 757 mmHg 66%
    19:00 +19°C° 0 mm 2 mps 758 mmHg 72%
    20:00 +17°C° 0 mm 2 mps 758 mmHg 74%
    21:00 +16°C° 0 mm 2 mps 758 mmHg 77%
    22:00 +14°C° 0 mm 2 mps 759 mmHg 79%
    23:00 +14°C° 0 mm 2 mps 759 mmHg 80%
    Show more